Klamath Falls, OR

7:27 PM PDT on August 19, 2017 (GMT -0700)
Klamath Falls International

Weather History for KLMT - December, 2012

Change the Weather History Date:

Saturday, December 8, 2012

  Actual Average Record
Temperature  
Mean Temperature 30 °F 30 °F  
Max Temperature 40 °F 39 °F 58 °F (1981)
Min Temperature 20 °F 21 °F -20 °F (2013)
Degree Days  
Heating Degree Days 35 35  
Month to date heating degree days 226 277  
Since 1 July heating degree days 1696 2079  
Cooling Degree Days 0 0  
Month to date cooling degree days 0 0  
Year to date cooling degree days 177 169  
Moisture  
Dew Point 23 °F    
Average Humidity 80    
Maximum Humidity 96    
Minimum Humidity 54    
Precipitation  
Precipitation 0.00 in 0.05 in 1.34 in (2004)
Month to date precipitation 1.20 0.37  
Year to date precipitation 9.31 13.88  
Sea Level Pressure  
Sea Level Pressure 30.23 in    
Wind  
Wind Speed 2 mph (WNW)    
Max Wind Speed 10 mph    
Max Gust Speed 13 mph    
Visibility 10 miles    
Events      
T = Trace of Precipitation, MM = Missing Value Source: NWS Daily Summary

Daily Weather History Graph

Daily Weather History Graph

Search for Another Location

Airport or City:

Trip Planner

Search our weather history database for the weather conditions in past years. The results will help you decide how hot, cold, wet, or windy it might be!

Date:

Astronomy

Dec. 08, 2012 Rise Set
Actual Time 7:23 AM PST 4:34 PM PST
Civil Twilight 6:51 AM PST 5:06 PM PST
Nautical Twilight 6:16 AM PST 5:41 PM PST
Astronomical Twilight 5:42 AM PST 6:15 PM PST
Moon 1:49 AM PST (12/8) 1:11 PM PST (12/8)
Length of Visible Light 10h 14m
Length of Day
9h 11m
Waning Crescent, 27% of the Moon is Illuminated
Dec 8
Waning Crescent
Dec 13
New
Dec 19
First Quarter
Dec 28
Full
Jan 4
Last Quarter

Hourly Weather History & Observations

Time (PST) Temp. Windchill Dew Point Humidity Pressure Visibility Wind Dir Wind Speed Gust Speed Precip Events Conditions
12:53 AM 25.0 °F - 23.0 °F 92% 30.18 in 10.0 mi Calm Calm - N/A   Clear
1:53 AM 21.9 °F - 19.9 °F 92% 30.19 in 10.0 mi Calm Calm - N/A   Clear
3:53 AM 21.0 °F - 19.0 °F 92% 30.19 in 10.0 mi Calm Calm - N/A   Clear
4:53 AM 19.9 °F - 18.0 °F 92% 30.21 in 10.0 mi Calm Calm - N/A   Clear
5:53 AM 23.0 °F - 21.0 °F 92% 30.20 in 10.0 mi Calm Calm - N/A   Overcast
6:01 AM 23.0 °F - 21.2 °F 93% 30.14 in 7.0 mi Calm Calm - N/A   Mostly Cloudy
6:53 AM 21.9 °F - 19.9 °F 92% 30.22 in 7.0 mi Calm Calm - N/A   Mostly Cloudy
7:53 AM 21.9 °F - 19.9 °F 92% 30.25 in 10.0 mi Calm Calm - N/A   Mostly Cloudy
8:53 AM 27.0 °F - 24.1 °F 89% 30.25 in 10.0 mi Calm Calm - N/A   Scattered Clouds
9:53 AM 28.9 °F - 27.0 °F 92% 30.25 in 10.0 mi Calm Calm - N/A   Mostly Cloudy
10:53 AM 32.0 °F - 28.0 °F 85% 30.24 in 10.0 mi Calm Calm - N/A   Mostly Cloudy
11:53 AM 34.0 °F - 28.0 °F 79% 30.23 in 10.0 mi Calm Calm - N/A   Mostly Cloudy
12:53 PM 37.0 °F - 27.0 °F 67% 30.20 in 10.0 mi Calm Calm - N/A   Mostly Cloudy
1:53 PM 39.0 °F 36.8 °F 26.1 °F 60% 30.19 in 10.0 mi WSW 3.5 mph - N/A   Mostly Cloudy
2:53 PM 39.0 °F - 25.0 °F 57% 30.19 in 10.0 mi Calm Calm - N/A   Mostly Cloudy
3:53 PM 37.9 °F 32.7 °F 26.1 °F 62% 30.19 in 10.0 mi NW 6.9 mph - N/A   Overcast
4:53 PM 35.1 °F 32.2 °F 21.9 °F 59% 30.21 in 10.0 mi West 3.5 mph - N/A   Overcast
5:53 PM 34.0 °F 27.2 °F 21.9 °F 61% 30.22 in 10.0 mi WNW 8.1 mph - N/A   Overcast
6:53 PM 34.0 °F 26.6 °F 24.1 °F 67% 30.24 in 10.0 mi NW 9.2 mph - N/A   Overcast
7:53 PM 30.9 °F 27.5 °F 24.1 °F 76% 30.27 in 10.0 mi West 3.5 mph - N/A   Overcast
8:53 PM 28.0 °F 22.8 °F 24.1 °F 85% 30.29 in 10.0 mi WNW 4.6 mph - N/A   Mostly Cloudy
9:53 PM 28.9 °F 21.9 °F 24.1 °F 82% 30.29 in 10.0 mi West 6.9 mph - N/A   Scattered Clouds
10:53 PM 26.1 °F 20.5 °F 21.9 °F 84% 30.30 in 10.0 mi NNW 4.6 mph - N/A   Clear
11:53 PM 25.0 °F - 21.0 °F 85% 30.29 in 8.0 mi Calm Calm - N/A   Mostly Cloudy